Location: Bamobli
(6.6379°N, 10.9396°W)
Time: 02:05:37
(UTC+00:00)

Envisat - Pass Details

Date: 11 March 2021
Orbit: 764 x 766 km, 98.1° (Epoch: 11 April)

Event Time Altitude Azimuth Distance (km) Brightness Sun altitude
Rises 05:12:51 0° 36° (NE) 3,216 6.7 -25.5°
Reaches altitude 10° 05:15:37 10° 51° (NE) 2,292 6.1 -24.8°
Maximum altitude 05:19:29 22° 101° (E) 1,614 5.4 -23.8°
Drops below altitude 10° 05:23:20 10° 151° (SSE) 2,295 5.8 -22.9°
Sets 05:26:06 0° 166° (SSE) 3,221 6.4 -22.2°
